This is the latest recevied weather packets stored in our database for station/object WP3OF-3. If no packets are shown the sender has not sent any weather packets the latest 10 day(s).
| Time | Temp. | Humidity | Pressure | Rain* | Wind** | Luminosity | Snow |
|---|---|---|---|---|---|---|---|
| 1777560629 | 27.78° C | 79% | 1016.1 hPa | 0 mm | - | - | - |
| 1777560327 | 27.78° C | 82% | 1015.9 hPa | 0 mm | - | - | - |
| 1777560025 | 27.78° C | 82% | 1016 hPa | 0 mm | - | - | - |
| 1777559720 | 27.78° C | 79% | 1015.9 hPa | 0 mm | - | - | - |
| 1777559417 | 27.22° C | 77% | 1015.8 hPa | 0 mm | - | - | - |
| 1777559114 | 26.67° C | 79% | 1015.8 hPa | 0 mm | - | - | - |
| 1777558809 | 26.67° C | 80% | 1016 hPa | 0 mm | - | - | - |
| 1777558505 | 26.11° C | 81% | 1015.7 hPa | 0 mm | - | - | - |
| 1777558201 | 25.56° C | 81% | 1015.8 hPa | 0 mm | - | - | - |
| 1777557897 | 26.11° C | 85% | 1015.8 hPa | 0 mm | - | - | - |
| 1777557595 | 25.56° C | 86% | 1015.9 hPa | 0 mm | - | - | - |
| 1777557290 | 25.56° C | 86% | 1015.9 hPa | 0 mm | - | - | - |
| 1777556987 | 25° C | 90% | 1015.8 hPa | 0 mm | - | - | - |
| 1777556683 | 23.89° C | 92% | 1015.9 hPa | 0 mm | - | - | - |
| 1777556379 | 23.89° C | 95% | 1015.9 hPa | 0 mm | - | - | - |
| 1777556074 | 24.44° C | 96% | 1016 hPa | 0 mm | - | - | - |
| 1777555774 | 24.44° C | 96% | 1015.9 hPa | 0 mm | - | - | - |
| 1777555471 | 23.89° C | 96% | 1016.1 hPa | 0 mm | - | - | - |
| 1777555167 | 23.89° C | 96% | 1016 hPa | 0 mm | - | - | - |
| 1777554864 | 23.89° C | 96% | 1016.1 hPa | 0 mm | - | - | - |
| 1777554561 | 23.89° C | 96% | 1016.3 hPa | 0 mm | - | - | - |
| 1777554258 | 23.89° C | 96% | 1016.5 hPa | 0 mm | - | - | - |
| 1777553955 | 23.89° C | 97% | 1016.5 hPa | 0 mm | - | - | - |
| 1777553651 | 23.89° C | 97% | 1016.6 hPa | 0 mm | - | - | - |
| 1777553348 | 23.33° C | 97% | 1016.5 hPa | 0 mm | - | - | - |
* Rain latest hour (hover to see other rain measurements)
** Current wind speed in m/s (hover to see current wind gust speed)